Hourly Weather Bolshie Mihalki

Today, 19 June, Saturday

Time Temperature Precipitation Wind Pressure Humidity
00:00 +18°C° 0 mm 2 mps 750 mmHg 85%
01:00 +17°C° 0 mm 2 mps 750 mmHg 86%
02:00 +17°C° 0 mm 2 mps 750 mmHg 87%
03:00 +17°C° 0 mm 2 mps 750 mmHg 88%
04:00 +17°C° 0 mm 2 mps 750 mmHg 89%
05:00 +17°C° 0 mm 2 mps 750 mmHg 90%
06:00 +19°C° 0 mm 2 mps 750 mmHg 83%
07:00 +21°C° 0 mm 2 mps 750 mmHg 77%
08:00 +24°C° 0 mm 2 mps 750 mmHg 71%
09:00 +25°C° 0 mm 3 mps 750 mmHg 67%
10:00 +27°C° 0 mm 3 mps 750 mmHg 64%
11:00 +28°C° 0 mm 4 mps 750 mmHg 60%
12:00 +28°C° 0 mm 4 mps 750 mmHg 57%
13:00 +29°C° 0 mm 4 mps 749 mmHg 54%
14:00 +30°C° 0 mm 4 mps 749 mmHg 52%
15:00 +29°C° 0 mm 4 mps 749 mmHg 53%
16:00 +29°C° 0 mm 4 mps 749 mmHg 55%
17:00 +28°C° 0 mm 4 mps 749 mmHg 57%
18:00 +27°C° 0 mm 3 mps 749 mmHg 64%
19:00 +25°C° 0 mm 3 mps 749 mmHg 70%
20:00 +24°C° 0 mm 2 mps 748 mmHg 76%
21:00 +23°C° 0 mm 2 mps 748 mmHg 79%
22:00 +21°C° 0 mm 3 mps 748 mmHg 83%
23:00 +20°C° 0 mm 3 mps 748 mmHg 86%

Tomorrow, 20 June, Sunday

Time Temperature Precipitation Wind Pressure Humidity
00:00 +19°C° 0 mm 3 mps 748 mmHg 88%
01:00 +19°C° 0 mm 2 mps 748 mmHg 90%
02:00 +18°C° 0 mm 2 mps 749 mmHg 93%
03:00 +18°C° 0 mm 2 mps 748 mmHg 92%
04:00 +18°C° 0 mm 2 mps 748 mmHg 92%
05:00 +18°C° 0 mm 2 mps 748 mmHg 92%
06:00 +20°C° 0 mm 2 mps 748 mmHg 86%
07:00 +22°C° 0 mm 3 mps 748 mmHg 81%
08:00 +24°C° 0 mm 3 mps 748 mmHg 75%
09:00 +26°C° 0 mm 4 mps 748 mmHg 70%
10:00 +27°C° 0 mm 5 mps 748 mmHg 66%
11:00 +28°C° 0 mm 5 mps 748 mmHg 61%
12:00 +29°C° 0 mm 5 mps 747 mmHg 58%
13:00 +29°C° 0 mm 5 mps 747 mmHg 55%
14:00 +30°C° 0 mm 5 mps 747 mmHg 52%
15:00 +29°C° 0.1 mm 5 mps 747 mmHg 56%
16:00 +29°C° 0.1 mm 5 mps 746 mmHg 60%
17:00 +28°C° 0.1 mm 5 mps 746 mmHg 64%
18:00 +27°C° 0.1 mm 4 mps 746 mmHg 69%
19:00 +26°C° 0.1 mm 3 mps 746 mmHg 75%
20:00 +25°C° 0.1 mm 2 mps 746 mmHg 81%
21:00 +24°C° 0 mm 3 mps 746 mmHg 82%
22:00 +22°C° 0 mm 3 mps 745 mmHg 84%
23:00 +21°C° 0 mm 3 mps 745 mmHg 85%

Day after tomorrow, 21 June, Monday

Time Temperature Precipitation Wind Pressure Humidity
00:00 +20°C° 0 mm 3 mps 745 mmHg 88%
01:00 +19°C° 0 mm 3 mps 745 mmHg 90%
02:00 +19°C° 0 mm 2 mps 745 mmHg 92%
03:00 +19°C° 0 mm 3 mps 745 mmHg 92%
04:00 +18°C° 0 mm 3 mps 745 mmHg 93%
05:00 +18°C° 0 mm 3 mps 745 mmHg 93%
06:00 +20°C° 0 mm 3 mps 745 mmHg 87%
07:00 +21°C° 0 mm 4 mps 745 mmHg 82%
08:00 +23°C° 0 mm 4 mps 745 mmHg 76%
09:00 +25°C° 0 mm 5 mps 745 mmHg 70%
10:00 +26°C° 0 mm 5 mps 745 mmHg 65%
11:00 +27°C° 0 mm 5 mps 744 mmHg 59%
12:00 +28°C° 0 mm 5 mps 744 mmHg 57%
13:00 +28°C° 0 mm 5 mps 744 mmHg 55%
14:00 +29°C° 0 mm 5 mps 744 mmHg 54%
15:00 +29°C° 0 mm 4 mps 743 mmHg 56%
16:00 +28°C° 0 mm 4 mps 743 mmHg 58%
17:00 +28°C° 0 mm 4 mps 743 mmHg 60%
18:00 +27°C° 0 mm 3 mps 743 mmHg 66%
19:00 +26°C° 0 mm 3 mps 743 mmHg 72%
20:00 +24°C° 0 mm 3 mps 743 mmHg 79%
21:00 +22°C° 0 mm 3 mps 743 mmHg 82%
22:00 +21°C° 0 mm 3 mps 743 mmHg 86%
23:00 +20°C° 0 mm 3 mps 743 mmHg 89%

22 June, Tuesday

Time Temperature Precipitation Wind Pressure Humidity
00:00 +20°C° 0 mm 3 mps 743 mmHg 90%
01:00 +20°C° 0 mm 3 mps 743 mmHg 92%
02:00 +19°C° 0 mm 2 mps 743 mmHg 93%
03:00 +19°C° 0 mm 2 mps 743 mmHg 93%
04:00 +19°C° 0 mm 2 mps 743 mmHg 93%
05:00 +19°C° 0 mm 2 mps 743 mmHg 93%
06:00 +21°C° 0 mm 3 mps 743 mmHg 86%
07:00 +24°C° 0 mm 3 mps 744 mmHg 80%
08:00 +25°C° 0 mm 4 mps 744 mmHg 74%
09:00 +27°C° 0 mm 4 mps 744 mmHg 69%
10:00 +28°C° 0 mm 4 mps 744 mmHg 63%
11:00 +29°C° 0 mm 4 mps 744 mmHg 58%
12:00 +29°C° 0 mm 4 mps 744 mmHg 56%
13:00 +30°C° 0 mm 4 mps 744 mmHg 53%
14:00 +32°C° 0 mm 4 mps 744 mmHg 50%
15:00 +30°C° 0 mm 4 mps 744 mmHg 55%
16:00 +29°C° 0 mm 3 mps 744 mmHg 59%
17:00 +28°C° 0 mm 2 mps 744 mmHg 63%
18:00 +27°C° 0 mm 2 mps 744 mmHg 67%
19:00 +26°C° 0 mm 2 mps 745 mmHg 70%
20:00 +26°C° 0 mm 2 mps 745 mmHg 73%
21:00 +24°C° 0.1 mm 2 mps 745 mmHg 79%
22:00 +23°C° 0.1 mm 2 mps 745 mmHg 85%
23:00 +21°C° 0.1 mm 2 mps 745 mmHg 91%

23 June, Wednesday

Time Temperature Precipitation Wind Pressure Humidity
00:00 +20°C° 0.3 mm 2 mps 745 mmHg 92%
01:00 +20°C° 0.3 mm 2 mps 745 mmHg 93%
02:00 +19°C° 0.3 mm 2 mps 745 mmHg 94%
03:00 +19°C° 0 mm 2 mps 745 mmHg 94%
04:00 +19°C° 0 mm 2 mps 745 mmHg 94%
05:00 +19°C° 0 mm 2 mps 745 mmHg 93%
06:00 +21°C° 0 mm 2 mps 745 mmHg 88%
07:00 +23°C° 0 mm 2 mps 746 mmHg 84%
08:00 +25°C° 0 mm 3 mps 746 mmHg 79%
09:00 +27°C° 0 mm 3 mps 746 mmHg 72%
10:00 +28°C° 0 mm 3 mps 746 mmHg 65%
11:00 +30°C° 0 mm 3 mps 746 mmHg 59%
12:00 +30°C° 0 mm 3 mps 746 mmHg 56%
13:00 +31°C° 0 mm 3 mps 746 mmHg 54%
14:00 +33°C° 0 mm 3 mps 746 mmHg 51%
15:00 +33°C° 0 mm 3 mps 746 mmHg 52%
16:00 +33°C° 0 mm 3 mps 746 mmHg 54%
17:00 +33°C° 0 mm 3 mps 745 mmHg 55%
18:00 +30°C° 0.1 mm 3 mps 745 mmHg 62%
19:00 +28°C° 0.1 mm 2 mps 745 mmHg 69%
20:00 +27°C° 0.1 mm 2 mps 745 mmHg 77%
21:00 +26°C° 0.1 mm 2 mps 745 mmHg 78%
22:00 +25°C° 0.1 mm 2 mps 746 mmHg 80%
23:00 +25°C° 0.1 mm 2 mps 746 mmHg 81%

24 June, Thursday

Time Temperature Precipitation Wind Pressure Humidity
00:00 +24°C° 0 mm 2 mps 746 mmHg 83%
01:00 +23°C° 0 mm 2 mps 746 mmHg 85%
02:00 +23°C° 0 mm 2 mps 745 mmHg 86%
03:00 +23°C° 0 mm 2 mps 746 mmHg 88%
04:00 +21°C° 0 mm 2 mps 746 mmHg 89%
05:00 +21°C° 0 mm 2 mps 746 mmHg 91%
06:00 +23°C° 0 mm 2 mps 746 mmHg 86%
07:00 +24°C° 0 mm 2 mps 746 mmHg 82%
08:00 +26°C° 0 mm 2 mps 746 mmHg 77%
09:00 +27°C° 0 mm 2 mps 746 mmHg 73%
10:00 +28°C° 0 mm 2 mps 746 mmHg 69%
11:00 +29°C° 0 mm 3 mps 747 mmHg 65%
12:00 +29°C° 0.1 mm 3 mps 747 mmHg 64%
13:00 +29°C° 0.1 mm 3 mps 746 mmHg 62%
14:00 +30°C° 0.1 mm 3 mps 746 mmHg 61%
15:00 +30°C° 0 mm 2 mps 746 mmHg 61%
16:00 +30°C° 0 mm 2 mps 746 mmHg 61%
17:00 +30°C° 0 mm 2 mps 746 mmHg 62%
18:00 +28°C° 0 mm 2 mps 746 mmHg 69%
19:00 +27°C° 0 mm 2 mps 745 mmHg 76%
20:00 +25°C° 0 mm 2 mps 745 mmHg 83%
21:00 +24°C° 0 mm 2 mps 745 mmHg 87%
22:00 +23°C° 0 mm 2 mps 745 mmHg 91%
23:00 +21°C° 0 mm 2 mps 745 mmHg 94%
Show more